GLD879 SWKT-SNYU

Flight info

Callsign GLD879
Flight time 0h 55m
Altitude 4500
Route DCT 1829S04816W 1854S04846W 1910S04905W 1925S04935W DCT
Aircraft BE35/M-SDFGIRY/S

Departure

Time 2026-05-07 01:12
Airport Catalão Airport (SWKT)

Arrival

Time 2026-05-07 02:08
Airport Iturama Airport (SNYU)
Time Latitude Longitude Altitude Speed Heading
2026-05-07 01:10 -18.21112 -47.90259 2641 ft 0 kts 154°
2026-05-07 01:12 -18.21206 -47.90211 2640 ft 54 kts 154°
2026-05-07 01:12 -18.21761 -47.89923 2710 ft 109 kts 153°
2026-05-07 01:12 -18.22407 -47.89559 3128 ft 110 kts 146°
2026-05-07 01:12 -18.23209 -47.89092 3246 ft 146 kts 147°
2026-05-07 01:13 -18.24164 -47.88581 3458 ft 162 kts 158°
2026-05-07 01:13 -18.25314 -47.88696 3660 ft 175 kts 206°
2026-05-07 01:13 -18.26095 -47.89661 3863 ft 181 kts 251°
2026-05-07 01:13 -18.26059 -47.90962 4066 ft 180 kts 296°
2026-05-07 01:14 -18.25346 -47.92030 4272 ft 179 kts 312°
2026-05-07 01:14 -18.24622 -47.93104 4399 ft 189 kts 301°
2026-05-07 01:14 -18.24437 -47.94496 4391 ft 198 kts 259°
2026-05-07 01:14 -18.25126 -47.95716 4401 ft 196 kts 218°
2026-05-07 01:15 -18.26251 -47.96511 4411 ft 196 kts 211°
2026-05-07 01:15 -18.27254 -47.97508 4406 ft 198 kts 230°
2026-05-07 01:15 -18.28069 -47.98668 4415 ft 199 kts 233°
2026-05-07 01:15 -18.28889 -47.99843 4414 ft 198 kts 232°
2026-05-07 01:16 -18.29722 -48.00993 4415 ft 197 kts 231°
2026-05-07 01:16 -18.30555 -48.02137 4406 ft 197 kts 231°
2026-05-07 01:16 -18.31388 -48.03282 4405 ft 196 kts 231°
2026-05-07 01:16 -18.32207 -48.04412 4404 ft 196 kts 231°
2026-05-07 01:17 -18.33037 -48.05550 4411 ft 196 kts 231°
2026-05-07 01:17 -18.33861 -48.06689 4406 ft 194 kts 231°
2026-05-07 01:17 -18.34672 -48.07810 4403 ft 195 kts 231°
2026-05-07 01:17 -18.35500 -48.08952 4404 ft 195 kts 232°
2026-05-07 01:18 -18.36319 -48.10076 4411 ft 196 kts 231°
2026-05-07 01:18 -18.37155 -48.11224 4403 ft 196 kts 231°
2026-05-07 01:18 -18.37978 -48.12363 4402 ft 193 kts 231°
2026-05-07 01:18 -18.38797 -48.13492 4407 ft 194 kts 231°
2026-05-07 01:19 -18.39615 -48.14630 4416 ft 195 kts 231°
2026-05-07 01:19 -18.40417 -48.15730 4540 ft 189 kts 231°
2026-05-07 01:19 -18.41184 -48.16787 4686 ft 186 kts 231°
2026-05-07 01:19 -18.41969 -48.17873 4829 ft 186 kts 231°
2026-05-07 01:20 -18.42758 -48.18961 4974 ft 188 kts 231°
2026-05-07 01:20 -18.43555 -48.20062 5116 ft 189 kts 231°
2026-05-07 01:20 -18.44344 -48.21150 5255 ft 188 kts 231°
2026-05-07 01:20 -18.45135 -48.22249 5402 ft 188 kts 231°
2026-05-07 01:21 -18.45933 -48.23351 5540 ft 188 kts 231°
2026-05-07 01:21 -18.46718 -48.24435 5690 ft 188 kts 231°
2026-05-07 01:21 -18.47514 -48.25536 5832 ft 188 kts 231°
2026-05-07 01:21 -18.48308 -48.26630 5982 ft 188 kts 230°
2026-05-07 01:22 -18.49156 -48.27677 6124 ft 186 kts 226°
2026-05-07 01:22 -18.50029 -48.28693 6275 ft 187 kts 226°
2026-05-07 01:22 -18.50882 -48.29708 6383 ft 189 kts 227°
2026-05-07 01:22 -18.51765 -48.30773 6399 ft 195 kts 227°
2026-05-07 01:23 -18.52680 -48.31868 6403 ft 198 kts 226°
2026-05-07 01:23 -18.53594 -48.32960 6410 ft 200 kts 226°
2026-05-07 01:23 -18.54526 -48.34075 6404 ft 202 kts 226°
2026-05-07 01:23 -18.55448 -48.35174 6410 ft 201 kts 227°
2026-05-07 01:24 -18.56382 -48.36287 6417 ft 201 kts 227°
2026-05-07 01:24 -18.57311 -48.37405 6419 ft 201 kts 227°
2026-05-07 01:24 -18.58229 -48.38505 6420 ft 200 kts 227°
2026-05-07 01:24 -18.59150 -48.39607 6419 ft 201 kts 227°
2026-05-07 01:25 -18.60078 -48.40717 6415 ft 203 kts 227°
2026-05-07 01:25 -18.61010 -48.41836 6417 ft 202 kts 227°
2026-05-07 01:25 -18.61941 -48.42955 6417 ft 202 kts 227°
2026-05-07 01:25 -18.62861 -48.44056 6419 ft 202 kts 227°
2026-05-07 01:26 -18.63800 -48.45178 6420 ft 201 kts 227°
2026-05-07 01:26 -18.64722 -48.46285 6419 ft 201 kts 227°
2026-05-07 01:26 -18.65641 -48.47389 6419 ft 202 kts 227°
2026-05-07 01:26 -18.66569 -48.48499 6414 ft 202 kts 227°
2026-05-07 01:27 -18.67502 -48.49618 6418 ft 203 kts 227°
2026-05-07 01:27 -18.68436 -48.50740 6418 ft 203 kts 227°
2026-05-07 01:27 -18.69364 -48.51857 6416 ft 203 kts 227°
2026-05-07 01:27 -18.70297 -48.52974 6414 ft 203 kts 227°
2026-05-07 01:28 -18.71220 -48.54081 6413 ft 203 kts 227°
2026-05-07 01:28 -18.72161 -48.55211 6410 ft 203 kts 227°
2026-05-07 01:28 -18.73090 -48.56326 6407 ft 203 kts 227°
2026-05-07 01:28 -18.74026 -48.57452 6409 ft 203 kts 227°
2026-05-07 01:29 -18.74952 -48.58565 6409 ft 203 kts 227°
2026-05-07 01:29 -18.75889 -48.59689 6407 ft 203 kts 227°
2026-05-07 01:29 -18.76811 -48.60796 6408 ft 202 kts 227°
2026-05-07 01:29 -18.77742 -48.61919 6407 ft 202 kts 227°
2026-05-07 01:30 -18.78677 -48.63039 6404 ft 202 kts 227°
2026-05-07 01:30 -18.79599 -48.64148 6408 ft 202 kts 227°
2026-05-07 01:30 -18.80533 -48.65270 6404 ft 202 kts 227°
2026-05-07 01:30 -18.81453 -48.66378 6404 ft 201 kts 227°
2026-05-07 01:31 -18.82381 -48.67495 6406 ft 201 kts 227°
2026-05-07 01:31 -18.83300 -48.68601 6405 ft 201 kts 227°
2026-05-07 01:31 -18.84228 -48.69717 6407 ft 201 kts 227°
2026-05-07 01:31 -18.85142 -48.70817 6404 ft 201 kts 227°
2026-05-07 01:32 -18.86067 -48.71931 6407 ft 201 kts 227°
2026-05-07 01:32 -18.86983 -48.73034 6405 ft 200 kts 227°
2026-05-07 01:32 -18.87910 -48.74150 6406 ft 201 kts 227°
2026-05-07 01:32 -18.88823 -48.75250 6405 ft 200 kts 227°
2026-05-07 01:33 -18.89752 -48.76366 6405 ft 201 kts 227°
2026-05-07 01:33 -18.90680 -48.77475 6401 ft 201 kts 227°
2026-05-07 01:33 -18.91603 -48.78568 6403 ft 201 kts 227°
2026-05-07 01:33 -18.92538 -48.79675 6402 ft 201 kts 227°
2026-05-07 01:34 -18.93471 -48.80781 6403 ft 200 kts 227°
2026-05-07 01:34 -18.94397 -48.81875 6401 ft 201 kts 227°
2026-05-07 01:34 -18.95326 -48.82980 6402 ft 202 kts 227°
2026-05-07 01:34 -18.96262 -48.84089 6400 ft 201 kts 227°
2026-05-07 01:35 -18.97187 -48.85186 6401 ft 201 kts 227°
2026-05-07 01:35 -18.98120 -48.86295 6397 ft 201 kts 227°
2026-05-07 01:35 -18.99056 -48.87402 6398 ft 201 kts 227°
2026-05-07 01:35 -18.99976 -48.88495 6397 ft 201 kts 227°
2026-05-07 01:36 -19.00910 -48.89602 6403 ft 201 kts 227°
2026-05-07 01:36 -19.01839 -48.90706 6402 ft 201 kts 227°
2026-05-07 01:36 -19.02764 -48.91804 6393 ft 201 kts 227°
2026-05-07 01:36 -19.03694 -48.92910 6397 ft 201 kts 227°
2026-05-07 01:37 -19.04317 -48.93649 6400 ft 201 kts 227°
2026-05-07 01:37 -19.05244 -48.94749 6402 ft 201 kts 227°
2026-05-07 01:37 -19.06178 -48.95858 6399 ft 201 kts 227°
2026-05-07 01:37 -19.07117 -48.96974 6401 ft 201 kts 227°
2026-05-07 01:38 -19.08042 -48.98073 6395 ft 200 kts 227°
2026-05-07 01:38 -19.08975 -48.99182 6399 ft 201 kts 227°
2026-05-07 01:38 -19.09896 -49.00277 6397 ft 201 kts 227°
2026-05-07 01:38 -19.10827 -49.01385 6399 ft 201 kts 227°
2026-05-07 01:39 -19.11759 -49.02492 6393 ft 200 kts 227°
2026-05-07 01:39 -19.12678 -49.03586 6393 ft 200 kts 227°
2026-05-07 01:39 -19.13590 -49.04671 6388 ft 200 kts 227°
2026-05-07 01:39 -19.14507 -49.05763 6389 ft 201 kts 227°
2026-05-07 01:40 -19.15437 -49.06870 6394 ft 201 kts 227°
2026-05-07 01:40 -19.16357 -49.07968 6388 ft 201 kts 227°
2026-05-07 01:40 -19.17156 -49.09183 6385 ft 200 kts 240°
2026-05-07 01:40 -19.17781 -49.10507 6388 ft 200 kts 243°
2026-05-07 01:41 -19.18409 -49.11812 6389 ft 200 kts 242°
2026-05-07 01:41 -19.19058 -49.13106 6389 ft 200 kts 241°
2026-05-07 01:41 -19.19718 -49.14416 6385 ft 201 kts 242°
2026-05-07 01:41 -19.20378 -49.15730 6387 ft 201 kts 241°
2026-05-07 01:42 -19.21026 -49.17023 6387 ft 201 kts 242°
2026-05-07 01:42 -19.21686 -49.18341 6387 ft 201 kts 242°
2026-05-07 01:42 -19.22337 -49.19639 6388 ft 200 kts 241°
2026-05-07 01:42 -19.22995 -49.20951 6387 ft 200 kts 242°
2026-05-07 01:43 -19.23642 -49.22245 6383 ft 201 kts 242°
2026-05-07 01:43 -19.24301 -49.23558 6384 ft 200 kts 242°
2026-05-07 01:43 -19.24956 -49.24867 6382 ft 201 kts 242°
2026-05-07 01:43 -19.25613 -49.26179 6380 ft 201 kts 242°
2026-05-07 01:44 -19.26264 -49.27478 6383 ft 201 kts 242°
2026-05-07 01:44 -19.26926 -49.28801 6380 ft 201 kts 242°
2026-05-07 01:44 -19.27580 -49.30106 6376 ft 201 kts 242°
2026-05-07 01:44 -19.28230 -49.31408 6376 ft 200 kts 242°
2026-05-07 01:45 -19.28875 -49.32701 6383 ft 201 kts 242°
2026-05-07 01:45 -19.29537 -49.34023 6378 ft 200 kts 242°
2026-05-07 01:45 -19.30185 -49.35317 6380 ft 200 kts 242°
2026-05-07 01:45 -19.30842 -49.36630 6383 ft 200 kts 242°
2026-05-07 01:46 -19.31488 -49.37926 6379 ft 201 kts 242°
2026-05-07 01:46 -19.32141 -49.39233 6380 ft 201 kts 242°
2026-05-07 01:46 -19.32796 -49.40543 6380 ft 200 kts 242°
2026-05-07 01:46 -19.33448 -49.41848 6381 ft 201 kts 242°
2026-05-07 01:47 -19.34106 -49.43168 6380 ft 201 kts 242°
2026-05-07 01:47 -19.34754 -49.44464 6380 ft 201 kts 242°
2026-05-07 01:47 -19.35411 -49.45779 6380 ft 201 kts 242°
2026-05-07 01:47 -19.36064 -49.47090 6377 ft 200 kts 242°
2026-05-07 01:48 -19.36714 -49.48393 6378 ft 200 kts 242°
2026-05-07 01:48 -19.37357 -49.49684 6378 ft 200 kts 242°
2026-05-07 01:48 -19.38015 -49.51002 6379 ft 201 kts 242°
2026-05-07 01:48 -19.38661 -49.52299 6376 ft 200 kts 242°
2026-05-07 01:49 -19.39309 -49.53602 6378 ft 200 kts 242°
2026-05-07 01:49 -19.39958 -49.54905 6379 ft 200 kts 242°
2026-05-07 01:49 -19.40614 -49.56219 6377 ft 200 kts 242°
2026-05-07 01:49 -19.41259 -49.57511 6374 ft 200 kts 242°
2026-05-07 01:50 -19.41904 -49.58822 6375 ft 200 kts 243°
2026-05-07 01:50 -19.42529 -49.60143 6374 ft 200 kts 244°
2026-05-07 01:50 -19.43153 -49.61468 6375 ft 200 kts 243°
2026-05-07 01:50 -19.43776 -49.62783 6378 ft 200 kts 243°
2026-05-07 01:51 -19.44397 -49.64090 6376 ft 200 kts 243°
2026-05-07 01:51 -19.45025 -49.65416 6373 ft 200 kts 244°
2026-05-07 01:51 -19.45648 -49.66729 6376 ft 200 kts 243°
2026-05-07 01:51 -19.46271 -49.68047 6374 ft 200 kts 243°
2026-05-07 01:52 -19.46897 -49.69368 6371 ft 200 kts 243°
2026-05-07 01:52 -19.47513 -49.70670 6371 ft 199 kts 243°
2026-05-07 01:52 -19.48141 -49.71994 6371 ft 199 kts 244°
2026-05-07 01:52 -19.48754 -49.73291 6372 ft 199 kts 244°
2026-05-07 01:53 -19.49380 -49.74614 6372 ft 199 kts 243°
2026-05-07 01:53 -19.49995 -49.75914 6370 ft 199 kts 244°
2026-05-07 01:53 -19.50614 -49.77224 6372 ft 198 kts 244°
2026-05-07 01:53 -19.51230 -49.78526 6371 ft 198 kts 244°
2026-05-07 01:54 -19.51850 -49.79837 6367 ft 198 kts 244°
2026-05-07 01:54 -19.52471 -49.81151 6366 ft 198 kts 244°
2026-05-07 01:54 -19.53087 -49.82454 6370 ft 199 kts 244°
2026-05-07 01:54 -19.53710 -49.83773 6370 ft 199 kts 244°
2026-05-07 01:55 -19.54326 -49.85078 6369 ft 199 kts 244°
2026-05-07 01:55 -19.54944 -49.86386 6366 ft 199 kts 244°
2026-05-07 01:55 -19.55563 -49.87701 6366 ft 199 kts 244°
2026-05-07 01:55 -19.56178 -49.89001 6368 ft 199 kts 244°
2026-05-07 01:56 -19.56797 -49.90313 6368 ft 199 kts 244°
2026-05-07 01:56 -19.57416 -49.91625 6363 ft 199 kts 244°
2026-05-07 01:56 -19.58034 -49.92937 6363 ft 198 kts 244°
2026-05-07 01:56 -19.58652 -49.94245 6359 ft 198 kts 244°
2026-05-07 01:57 -19.59264 -49.95547 6362 ft 198 kts 244°
2026-05-07 01:57 -19.59886 -49.96866 6360 ft 198 kts 244°
2026-05-07 01:57 -19.60503 -49.98174 6359 ft 198 kts 244°
2026-05-07 01:57 -19.61119 -49.99483 6361 ft 198 kts 244°
2026-05-07 01:58 -19.61729 -50.00777 6358 ft 198 kts 244°
2026-05-07 01:58 -19.62346 -50.02090 6355 ft 198 kts 244°
2026-05-07 01:58 -19.62966 -50.03404 6360 ft 199 kts 244°
2026-05-07 01:58 -19.63580 -50.04707 6356 ft 199 kts 244°
2026-05-07 01:59 -19.64199 -50.06024 6359 ft 198 kts 244°
2026-05-07 01:59 -19.64810 -50.07324 6356 ft 199 kts 244°
2026-05-07 01:59 -19.65432 -50.08646 6361 ft 199 kts 244°
2026-05-07 01:59 -19.66051 -50.09963 6360 ft 199 kts 244°
2026-05-07 02:00 -19.66661 -50.11257 6360 ft 198 kts 244°
2026-05-07 02:00 -19.67277 -50.12569 6357 ft 198 kts 244°
2026-05-07 02:00 -19.67895 -50.13884 6360 ft 198 kts 244°
2026-05-07 02:00 -19.68512 -50.15197 6356 ft 198 kts 244°
2026-05-07 02:01 -19.69127 -50.16509 6357 ft 199 kts 244°
2026-05-07 02:01 -19.69744 -50.17823 6353 ft 199 kts 244°
2026-05-07 02:01 -19.70357 -50.19128 6356 ft 199 kts 244°
2026-05-07 02:01 -19.70974 -50.20445 6354 ft 198 kts 244°
2026-05-07 02:02 -19.71592 -50.21759 6356 ft 198 kts 244°
2026-05-07 02:02 -19.72209 -50.23074 6356 ft 198 kts 244°
2026-05-07 02:02 -19.72819 -50.24376 6357 ft 198 kts 244°
2026-05-07 02:02 -19.73564 -50.25589 6343 ft 195 kts 220°
2026-05-07 02:03 -19.74764 -50.26100 6227 ft 186 kts 180°
2026-05-07 02:03 -19.76006 -50.25846 5937 ft 180 kts 160°
2026-05-07 02:03 -19.77187 -50.25457 5612 ft 176 kts 159°
2026-05-07 02:03 -19.78331 -50.25078 5248 ft 171 kts 159°
2026-05-07 02:04 -19.79455 -50.24704 4892 ft 167 kts 159°
2026-05-07 02:04 -19.80513 -50.24345 4505 ft 150 kts 155°
2026-05-07 02:04 -19.81201 -50.23647 4123 ft 132 kts 104°
2026-05-07 02:04 -19.81136 -50.22702 3763 ft 132 kts 73°
2026-05-07 02:05 -19.80903 -50.21759 3418 ft 136 kts 74°
2026-05-07 02:05 -19.80659 -50.20782 3153 ft 135 kts 74°
2026-05-07 02:05 -19.80237 -50.19928 2930 ft 133 kts 38°
2026-05-07 02:05 -19.79341 -50.19764 2716 ft 135 kts 352°
2026-05-07 02:06 -19.78453 -50.20110 2494 ft 136 kts 335°
2026-05-07 02:06 -19.77639 -50.20535 2361 ft 126 kts 339°
2026-05-07 02:06 -19.76840 -50.20859 2324 ft 126 kts 348°
2026-05-07 02:06 -19.75968 -50.21069 2234 ft 127 kts 351°
2026-05-07 02:07 -19.75109 -50.21248 2091 ft 127 kts 350°
2026-05-07 02:07 -19.73403 -50.21638 1804 ft 120 kts 347°
2026-05-07 02:07 -19.72674 -50.21813 1619 ft 96 kts 346°
2026-05-07 02:08 -19.72141 -50.21942 1573 ft 45 kts 349°
2026-05-07 02:08 -19.72065 -50.21969 1570 ft 10 kts 194°
2026-05-07 02:08 -19.72235 -50.21930 1574 ft 33 kts 167°
2026-05-07 02:08 -19.72365 -50.21839 1573 ft 16 kts 92°
2026-05-07 02:09 -19.72397 -50.21769 1573 ft 0 kts 157°